When you browse on this site, cookies collect data to enhance your experience and personalize the content and advertising you see.
Visit our Privacy Policy to learn more. By continuing to use the site, you agree to this use of cookies and data.
  • en France
  • Liste des pays
  • À 7 jours
  • Température de l'eau
  • Carte météo
  • Widgets météo
  • user-avatar
    Se connecter

    Météo par heure à Moutare

    Ce jour, 7 Décembre, Samedi

    Heure Température Précipitation Vent Pression Humidité
    00:00 +16°C° 0 mm 1 m/s 652 mmHg 94%
    01:00 +16°C° 0 mm 1 m/s 651 mmHg 95%
    02:00 +15°C° 0 mm 1 m/s 651 mmHg 96%
    03:00 +15°C° 0 mm 1 m/s 651 mmHg 95%
    04:00 +15°C° 0 mm 1 m/s 651 mmHg 95%
    05:00 +14°C° 0 mm 0 m/s 650 mmHg 94%
    06:00 +18°C° 0 mm 0 m/s 651 mmHg 81%
    07:00 +21°C° 0 mm 0 m/s 653 mmHg 67%
    08:00 +25°C° 0 mm 0 m/s 654 mmHg 54%
    09:00 +28°C° 0 mm 1 m/s 654 mmHg 48%
    10:00 +30°C° 0 mm 1 m/s 654 mmHg 41%
    11:00 +32°C° 0 mm 2 m/s 653 mmHg 35%
    12:00 +32°C° 0 mm 2 m/s 653 mmHg 35%
    13:00 +32°C° 0 mm 2 m/s 652 mmHg 34%
    14:00 +33°C° 0 mm 3 m/s 651 mmHg 33%
    15:00 +31°C° 0 mm 3 m/s 651 mmHg 37%
    16:00 +30°C° 0 mm 3 m/s 650 mmHg 40%
    17:00 +29°C° 0 mm 3 m/s 650 mmHg 43%
    18:00 +26°C° 0 mm 3 m/s 650 mmHg 51%
    19:00 +24°C° 0 mm 2 m/s 650 mmHg 58%
    20:00 +21°C° 0 mm 2 m/s 650 mmHg 65%
    21:00 +20°C° 0 mm 2 m/s 650 mmHg 69%
    22:00 +20°C° 0 mm 2 m/s 650 mmHg 72%
    23:00 +19°C° 0 mm 2 m/s 650 mmHg 76%

    Demain, 8 Décembre, Dimanche

    Heure Température Précipitation Vent Pression Humidité
    00:00 +19°C° 0 mm 2 m/s 650 mmHg 77%
    01:00 +19°C° 0 mm 1 m/s 649 mmHg 79%
    02:00 +19°C° 0 mm 1 m/s 649 mmHg 80%
    03:00 +19°C° 0 mm 1 m/s 649 mmHg 81%
    04:00 +18°C° 0 mm 1 m/s 649 mmHg 82%
    05:00 +18°C° 0 mm 1 m/s 649 mmHg 83%
    06:00 +21°C° 0 mm 1 m/s 650 mmHg 71%
    07:00 +25°C° 0 mm 1 m/s 651 mmHg 60%
    08:00 +28°C° 0 mm 1 m/s 652 mmHg 48%
    09:00 +30°C° 0 mm 1 m/s 652 mmHg 43%
    10:00 +33°C° 0 mm 1 m/s 653 mmHg 38%
    11:00 +35°C° 0 mm 1 m/s 653 mmHg 33%
    12:00 +35°C° 0 mm 2 m/s 652 mmHg 35%
    13:00 +34°C° 0 mm 3 m/s 651 mmHg 37%
    14:00 +31°C° 0 mm 3 m/s 650 mmHg 40%
    15:00 +30°C° 0.1 mm 3 m/s 650 mmHg 44%
    16:00 +29°C° 0.1 mm 3 m/s 650 mmHg 48%
    17:00 +28°C° 0.1 mm 3 m/s 649 mmHg 52%
    18:00 +26°C° 0.3 mm 2 m/s 649 mmHg 61%
    19:00 +24°C° 0.3 mm 2 m/s 650 mmHg 70%
    20:00 +22°C° 0.3 mm 1 m/s 650 mmHg 78%
    21:00 +22°C° 0.1 mm 1 m/s 650 mmHg 82%
    22:00 +21°C° 0.1 mm 1 m/s 650 mmHg 86%
    23:00 +20°C° 0.1 mm 2 m/s 650 mmHg 89%

    Après-demain, 9 Décembre, Lundi

    Heure Température Précipitation Vent Pression Humidité
    00:00 +19°C° 0.1 mm 2 m/s 650 mmHg 91%
    01:00 +19°C° 0.1 mm 2 m/s 650 mmHg 92%
    02:00 +19°C° 0.1 mm 2 m/s 650 mmHg 93%
    03:00 +19°C° 0 mm 2 m/s 650 mmHg 93%
    04:00 +18°C° 0 mm 2 m/s 650 mmHg 93%
    05:00 +18°C° 0 mm 2 m/s 650 mmHg 94%
    06:00 +20°C° 0 mm 2 m/s 650 mmHg 85%
    07:00 +23°C° 0 mm 2 m/s 651 mmHg 76%
    08:00 +25°C° 0 mm 2 m/s 652 mmHg 67%
    09:00 +26°C° 0.1 mm 2 m/s 652 mmHg 60%
    10:00 +28°C° 0.1 mm 2 m/s 652 mmHg 54%
    11:00 +30°C° 0.1 mm 3 m/s 652 mmHg 48%
    12:00 +30°C° 0.4 mm 3 m/s 652 mmHg 48%
    13:00 +30°C° 0.4 mm 3 m/s 651 mmHg 49%
    14:00 +30°C° 0.4 mm 4 m/s 650 mmHg 49%
    15:00 +28°C° 1 mm 4 m/s 650 mmHg 57%
    16:00 +27°C° 1 mm 4 m/s 650 mmHg 65%
    17:00 +25°C° 1 mm 3 m/s 649 mmHg 73%
    18:00 +24°C° 0.4 mm 3 m/s 649 mmHg 77%
    19:00 +22°C° 0.4 mm 3 m/s 649 mmHg 81%
    20:00 +21°C° 0.4 mm 3 m/s 650 mmHg 84%
    21:00 +20°C° 0.1 mm 3 m/s 650 mmHg 88%
    22:00 +20°C° 0.1 mm 3 m/s 650 mmHg 91%
    23:00 +19°C° 0.1 mm 3 m/s 650 mmHg 94%

    10 Décembre, Mardi

    Heure Température Précipitation Vent Pression Humidité
    00:00 +19°C° 0.1 mm 3 m/s 650 mmHg 94%
    01:00 +19°C° 0.1 mm 3 m/s 650 mmHg 93%
    02:00 +19°C° 0.1 mm 3 m/s 650 mmHg 93%
    03:00 +19°C° 0 mm 2 m/s 650 mmHg 94%
    04:00 +18°C° 0 mm 2 m/s 649 mmHg 94%
    05:00 +18°C° 0 mm 2 m/s 649 mmHg 95%
    06:00 +19°C° 0 mm 2 m/s 650 mmHg 90%
    07:00 +20°C° 0 mm 2 m/s 651 mmHg 85%
    08:00 +21°C° 0 mm 2 m/s 651 mmHg 80%
    09:00 +22°C° 0.2 mm 3 m/s 651 mmHg 74%
    10:00 +25°C° 0.2 mm 3 m/s 651 mmHg 69%
    11:00 +26°C° 0.2 mm 3 m/s 651 mmHg 64%
    12:00 +26°C° 1 mm 3 m/s 650 mmHg 65%
    13:00 +26°C° 1 mm 2 m/s 650 mmHg 66%
    14:00 +26°C° 1 mm 2 m/s 649 mmHg 67%
    15:00 +26°C° 1.6 mm 2 m/s 649 mmHg 72%
    16:00 +25°C° 1.6 mm 1 m/s 649 mmHg 76%
    17:00 +24°C° 1.6 mm 1 m/s 648 mmHg 81%
    18:00 +23°C° 1.4 mm 1 m/s 649 mmHg 85%
    19:00 +21°C° 1.4 mm 1 m/s 649 mmHg 90%
    20:00 +20°C° 1.4 mm 1 m/s 649 mmHg 95%
    21:00 +19°C° 0.7 mm 1 m/s 649 mmHg 95%
    22:00 +19°C° 0.7 mm 1 m/s 650 mmHg 96%
    23:00 +17°C° 0.7 mm 0 m/s 650 mmHg 97%

    11 Décembre, Mercredi

    Heure Température Précipitation Vent Pression Humidité
    00:00 +17°C° 1.1 mm 0 m/s 650 mmHg 97%
    01:00 +17°C° 1.1 mm 0 m/s 649 mmHg 97%
    02:00 +17°C° 1.1 mm 0 m/s 649 mmHg 97%
    03:00 +17°C° 1.6 mm 0 m/s 649 mmHg 98%
    04:00 +17°C° 1.6 mm 0 m/s 649 mmHg 98%
    05:00 +17°C° 1.6 mm 0 m/s 649 mmHg 98%
    06:00 +17°C° 5.5 mm 0 m/s 649 mmHg 98%
    07:00 +17°C° 5.5 mm 0 m/s 649 mmHg 98%
    08:00 +17°C° 5.5 mm 0 m/s 650 mmHg 98%
    09:00 +17°C° 3.5 mm 0 m/s 650 mmHg 98%
    10:00 +17°C° 3.5 mm 0 m/s 650 mmHg 97%
    11:00 +18°C° 3.5 mm 0 m/s 650 mmHg 96%
    12:00 +18°C° 0.6 mm 0 m/s 649 mmHg 95%
    13:00 +18°C° 0.6 mm 0 m/s 649 mmHg 94%
    14:00 +19°C° 0.6 mm 0 m/s 649 mmHg 92%
    15:00 +19°C° 0.1 mm 0 m/s 649 mmHg 90%
    16:00 +22°C° 0.1 mm 1 m/s 649 mmHg 88%
    17:00 +22°C° 0.1 mm 1 m/s 649 mmHg 86%
    18:00 +21°C° 0.1 mm 1 m/s 649 mmHg 89%
    19:00 +18°C° 0.1 mm 0 m/s 649 mmHg 92%
    20:00 +18°C° 0.1 mm 0 m/s 650 mmHg 95%
    21:00 +17°C° 0.2 mm 0 m/s 650 mmHg 96%
    22:00 +17°C° 0.2 mm 0 m/s 650 mmHg 96%
    23:00 +17°C° 0.2 mm 0 m/s 650 mmHg 96%

    12 Décembre, Jeudi

    Heure Température Précipitation Vent Pression Humidité
    00:00 +17°C° 0.3 mm 0 m/s 650 mmHg 96%
    01:00 +17°C° 0.3 mm 0 m/s 649 mmHg 96%
    02:00 +16°C° 0.3 mm 0 m/s 649 mmHg 96%
    03:00 +16°C° 0 mm 0 m/s 649 mmHg 96%
    04:00 +16°C° 0 mm 0 m/s 649 mmHg 96%
    05:00 +16°C° 0 mm 0 m/s 650 mmHg 96%
    06:00 +18°C° 0 mm 0 m/s 650 mmHg 89%
    07:00 +20°C° 0 mm 0 m/s 651 mmHg 82%
    08:00 +22°C° 0 mm 0 m/s 652 mmHg 75%
    09:00 +24°C° 0.4 mm 0 m/s 652 mmHg 70%
    10:00 +27°C° 0.4 mm 1 m/s 652 mmHg 65%
    11:00 +28°C° 0.4 mm 1 m/s 652 mmHg 61%
    12:00 +28°C° 1 mm 1 m/s 652 mmHg 63%
    13:00 +28°C° 1 mm 1 m/s 651 mmHg 65%
    14:00 +28°C° 1 mm 1 m/s 651 mmHg 67%
    15:00 +27°C° 0.9 mm 1 m/s 651 mmHg 70%
    16:00 +26°C° 0.9 mm 1 m/s 650 mmHg 73%
    17:00 +25°C° 0.9 mm 1 m/s 650 mmHg 77%
    18:00 +23°C° 0.8 mm 1 m/s 650 mmHg 81%
    19:00 +22°C° 0.8 mm 1 m/s 650 mmHg 86%
    20:00 +20°C° 0.8 mm 1 m/s 651 mmHg 90%
    21:00 +20°C° 0.1 mm 1 m/s 651 mmHg 91%
    22:00 +20°C° 0.1 mm 1 m/s 651 mmHg 92%
    23:00 +20°C° 0.1 mm 1 m/s 651 mmHg 92%
    Voir plus